| time (UTC) | temp F | wind direction | speed MPH | gust MPH | rain 1hr in | rain 24hr in | rain mn in | humidity % | barometer mb |
| 20260505101525 | 47 | 219 | 2.0 | 8.0 | 0.00 | 0.00 | 0.00 | 72 | 1013.9 |
| 20260505100026 | 47 | 252 | 3.0 | 8.0 | 0.00 | 0.00 | 0.00 | 71 | 1014.0 |
| 20260505094519 | 47 | 205 | 4.0 | 9.0 | 0.00 | 0.00 | 0.00 | 71 | 1014.0 |
| 20260505093027 | 47 | 236 | 3.0 | 7.0 | 0.00 | 0.00 | 0.00 | 72 | 1014.0 |
| 20260505091516 | 47 | 267 | 3.0 | 6.0 | 0.00 | 0.00 | 0.00 | 72 | 1014.1 |
| 20260505090014 | 47 | 223 | 0.0 | 10.0 | 0.00 | 0.00 | 0.00 | 73 | 1013.9 |
| 20260505084509 | 47 | 258 | 2.0 | 9.0 | 0.00 | 0.00 | 0.00 | 74 | 1014.1 |
| 20260505083008 | 47 | 213 | 2.0 | 9.0 | 0.00 | 0.00 | 0.00 | 76 | 1013.9 |
| 20260505081506 | 46 | 205 | 2.0 | 6.0 | 0.00 | 0.00 | 0.00 | 77 | 1013.9 |
| 20260505080003 | 46 | 212 | 1.0 | 4.0 | 0.00 | 0.00 | 0.00 | 78 | 1013.7 |
| 20260505074559 | 46 | 195 | 3.0 | 6.0 | 0.00 | 0.00 | 0.00 | 79 | 1013.7 |
| 20260505073059 | 46 | 205 | 0.0 | 7.0 | 0.00 | 0.00 | 0.00 | 78 | 1013.8 |
| 20260505071555 | 46 | 206 | 3.0 | 7.0 | 0.00 | 0.00 | 0.00 | 79 | 1013.5 |
| 20260505070050 | 46 | 206 | 3.0 | 7.0 | 0.00 | 0.00 | 0.00 | 80 | 1013.6 |
| 20260505064548 | 46 | 206 | 1.0 | 7.0 | 0.00 | 0.00 | 0.00 | 80 | 1013.7 |
| 20260505063046 | 46 | 212 | 2.0 | 8.0 | 0.00 | 0.00 | 0.00 | 79 | 1013.5 |
| 20260505061546 | 46 | 217 | 0.0 | 5.0 | 0.00 | 0.00 | 0.00 | 79 | 1013.8 |
| 20260505060040 | 47 | 199 | 3.0 | 9.0 | 0.00 | 0.00 | 0.00 | 79 | 1013.7 |
| 20260505054640 | 47 | 203 | 2.0 | 8.0 | 0.00 | 0.00 | 0.00 | 79 | 1013.6 |
| 20260505053042 | 47 | 215 | 3.0 | 8.0 | 0.00 | 0.00 | 0.00 | 79 | 1013.7 |
| 20260505051534 | 47 | 196 | 5.0 | 14.0 | 0.00 | 0.00 | 0.00 | 79 | 1013.6 |
| 20260505041516 | 47 | 213 | 4.0 | 11.0 | 0.00 | 0.00 | 0.00 | 78 | 1013.8 |
| 20260505040013 | 48 | 200 | 4.0 | 11.0 | 0.00 | 0.00 | 0.00 | 78 | 1013.7 |
| 20260505034508 | 47 | 188 | 5.0 | 12.0 | 0.00 | 0.00 | 0.00 | 78 | 1014.0 |
| 20260505033015 | 48 | 175 | 5.0 | 10.0 | 0.00 | 0.00 | 0.00 | 77 | 1014.3 |
| 20260505031505 | 48 | 213 | 5.0 | 9.0 | 0.00 | 0.00 | 0.00 | 76 | 1014.4 |
| 20260505030003 | 49 | 191 | 4.0 | 10.0 | 0.00 | 0.00 | 0.00 | 74 | 1014.6 |
| 20260505024609 | 49 | 176 | 4.0 | 11.0 | 0.00 | 0.00 | 0.00 | 73 | 1014.7 |
| 20260505023107 | 49 | 203 | 2.0 | 9.0 | 0.00 | 0.00 | 0.00 | 72 | 1014.7 |
| 20260505021557 | 49 | 203 | 3.0 | 13.0 | 0.00 | 0.00 | 0.00 | 70 | 1014.7 |
| 20260505020056 | 49 | 191 | 4.0 | 13.0 | 0.00 | 0.00 | 0.00 | 69 | 1014.6 |
| 20260505014552 | 50 | 192 | 4.0 | 8.0 | 0.00 | 0.00 | 0.00 | 68 | 1014.7 |
| 20260505013051 | 50 | 188 | 3.0 | 12.0 | 0.00 | 0.00 | 0.00 | 67 | 1014.7 |
| 20260505011555 | 50 | 185 | 3.0 | 9.0 | 0.00 | 0.00 | 0.00 | 66 | 1014.6 |
| 20260505010047 | 51 | 198 | 3.0 | 10.0 | 0.00 | 0.00 | 0.00 | 64 | 1014.7 |
| 20260505004549 | 51 | 190 | 3.0 | 10.0 | 0.00 | 0.00 | 0.00 | 64 | 1014.5 |
| 20260505003043 | 52 | 221 | 2.0 | 10.0 | 0.00 | 0.00 | 0.00 | 64 | 1014.3 |
| 20260505001542 | 53 | 194 | 3.0 | 13.0 | 0.00 | 0.00 | 0.00 | 63 | 1014.3 |
| 20260505000044 | 54 | 172 | 5.0 | 12.0 | 0.00 | 0.00 | 0.00 | 61 | 1014.3 |
| 20260504234600 | 56 | 222 | 5.0 | 10.0 | 0.00 | 0.00 | 0.00 | 58 | 1014.2 |
| 20260504233035 | 57 | 236 | 3.0 | 12.0 | 0.00 | 0.00 | 0.00 | 57 | 1014.2 |
| 20260504231541 | 58 | 198 | 6.0 | 12.0 | 0.00 | 0.00 | 0.00 | 56 | 1014.1 |
| 20260504230029 | 58 | 203 | 5.0 | 14.0 | 0.00 | 0.00 | 0.00 | 57 | 1014.1 |
| 20260504224528 | 57 | 206 | 4.0 | 11.0 | 0.00 | 0.00 | 0.00 | 59 | 1014.0 |
| 20260504223025 | 58 | 164 | 4.0 | 10.0 | 0.00 | 0.00 | 0.00 | 59 | 1014.2 |
| 20260504221524 | 59 | 210 | 6.0 | 11.0 | 0.00 | 0.00 | 0.00 | 56 | 1014.0 |
| 20260504220020 | 59 | 203 | 1.0 | 10.0 | 0.00 | 0.00 | 0.00 | 54 | 1014.1 |
| 20260504214518 | 60 | 202 | 5.0 | 12.0 | 0.00 | 0.00 | 0.00 | 52 | 1014.3 |
| 20260504213013 | 60 | 207 | 2.0 | 7.0 | 0.00 | 0.00 | 0.00 | 51 | 1014.5 |
| 20260504211508 | 61 | 213 | 2.0 | 9.0 | 0.00 | 0.00 | 0.00 | 51 | 1014.7 |
| 20260504210010 | 61 | 226 | 4.0 | 9.0 | 0.00 | 0.00 | 0.00 | 52 | 1014.8 |
| 20260504204505 | 61 | 208 | 4.0 | 8.0 | 0.00 | 0.00 | 0.00 | 51 | 1015.0 |
| 20260504203100 | 62 | 176 | 5.0 | 11.0 | 0.00 | 0.00 | 0.00 | 49 | 1015.1 |
| 20260504201559 | 63 | 188 | 5.0 | 10.0 | 0.00 | 0.00 | 0.00 | 50 | 1015.2 |
| 20260504200057 | 62 | 205 | 3.0 | 11.0 | 0.00 | 0.00 | 0.00 | 53 | 1015.5 |
| 20260504194553 | 64 | 265 | 3.0 | 10.0 | 0.00 | 0.00 | 0.00 | 53 | 1015.7 |
| 20260504193047 | 61 | 184 | 4.0 | 10.0 | 0.00 | 0.00 | 0.00 | 57 | 1015.8 |
| 20260504191545 | 61 | 195 | 4.0 | 9.0 | 0.00 | 0.00 | 0.00 | 57 | 1016.2 |
| 20260504190047 | 60 | 184 | 1.0 | 9.0 | 0.00 | 0.00 | 0.00 | 61 | 1016.2 |
| 20260504184534 | 59 | 37 | 4.0 | 7.0 | 0.00 | 0.00 | 0.00 | 62 | 1016.4 |
| 20260504183032 | 58 | 212 | 5.0 | 11.0 | 0.00 | 0.00 | 0.00 | 62 | 1016.7 |
| 20260504181527 | 57 | 221 | 4.0 | 12.0 | 0.00 | 0.00 | 0.00 | 64 | 1016.7 |
| 20260504180023 | 56 | 218 | 3.0 | 11.0 | 0.00 | 0.00 | 0.00 | 65 | 1016.9 |
| 20260504174520 | 55 | 199 | 8.0 | 15.0 | 0.00 | 0.00 | 0.00 | 65 | 1017.0 |
| 20260504173016 | 55 | 220 | 3.0 | 12.0 | 0.00 | 0.00 | 0.00 | 66 | 1017.2 |
| 20260504171532 | 54 | 46 | 10.0 | 19.0 | 0.00 | 0.00 | 0.00 | 66 | 1017.1 |